sat.trackr.live / text

‹ back to catalog

STARLINK-33858

NORAD 63885 · 2025-094X

PAYLOAD ACTIVE UNKNOWN

§ Identity

Operator
Country
US
Launch date
2025-05-10
Launch site
AFWTR
Launch vehicle
Mass (kg)
RCS (m²)

Purposes: comms

External: N2YO · Heavens-Above · Gunter

§ Orbital elements

Epoch: 2026-09-20T17:23:59.817696Z

Period
94.14 min
Inclination
69.9991°
Eccentricity
0.0003460
Mean motion
15.29587226 rev/d
Perigee alt
474.7 km
Apogee alt
479.4 km
Semi-major
6,855.2 km
B*
3.3395e-4
RAAN
100.4683°
Arg perigee
267.8933°
Mean anomaly
92.1846°
Rev number
7,647

§ Raw data

STARLINK-338581 63885U 25094X   26263.72499789  .00009487  00000+0  33395-3 0  99972 63885  69.9991 100.4683 0003460 267.8933  92.1846 15.29587226 76479

JSON: /api/v1/satellites/63885 · /tle

For live sub-satellite position, see the globe view (requires WebGL).

§ Visibility from observer

Set your observer location to see the next 7 days of passes ≥ 10°. The values pass through the URL so the page stays shareable.

No JS? Fill the form by hand. The geolocation button needs JavaScript.